Location: Molveno
(46.1500°N, 10.9667°E)
Time: 01:27:59
(UTC+00:00)

ALOS 2 - Pass Details

Date: 05 July 2020
Orbit: 630 x 632 km, 97.9° (Epoch: 11 August)

Event Time Altitude Azimuth Distance (km) Brightness Sun altitude
Exits shadow 23:35:17 25° 252° (WSW) 1,271 3.9 -21.1°
Maximum altitude 23:35:52 26° 265° (W) 1,247 4.0 -21.1°
Drops below altitude 10° 23:39:35 10° 323° (NW) 2,024 5.8 -21.1°
Sets 23:42:06 0° 336° (NNW) 2,937 7.1 -21.0°
